FW2536 Weather Reports


time (UTC)temp
F
wind
direction
speed
knots
gust
knots
rain 1hr
in
rain 24hr
in
rain mn
in
humidity
%
barometer
mb
20260503054537 40 360 1.7 4.3 0.00 0.09 0.00 50 1013.9
20260503053034 41 360 0.0 1.7 0.00 0.09 0.00 50 1014.1
20260503051538 41 360 0.0 2.6 0.00 0.09 0.00 49 1014.2
20260503050031 41 360 0.0 2.6 0.00 0.09 0.00 49 1014.3
20260503044531 41 360 0.0 0.9 0.00 0.14 0.00 49 1014.4
20260503043028 42 360 0.0 2.6 0.00 0.14 0.00 48 1014.5
20260503041526 42 360 0.0 3.5 0.00 0.14 0.00 47 1014.7
20260503040022 43 360 0.0 1.7 0.00 0.14 0.00 46 1014.7
20260503034521 43 360 0.0 2.6 0.00 0.18 0.14 44 1014.7
20260503033031 43 360 0.9 3.5 0.00 0.18 0.14 46 1014.6
20260503031520 43 360 0.0 1.7 0.00 0.18 0.14 45 1014.5
20260503030130 43 360 0.0 0.9 0.00 0.18 0.14 46 1014.5
20260503024525 44 360 0.0 1.7 0.00 0.19 0.14 44 1014.7
20260503023016 44 360 0.9 4.3 0.00 0.19 0.14 43 1014.7
20260503021516 44 360 0.9 3.5 0.00 0.19 0.14 44 1014.6
20260503020016 44 360 0.0 2.6 0.00 0.23 0.14 43 1014.5
20260503014515 44 360 0.9 2.6 0.00 0.23 0.14 43 1014.3
20260503013015 44 360 0.9 7.0 0.00 0.23 0.14 43 1014.3
20260503011515 45 360 0.0 3.5 0.00 0.23 0.14 42 1014.2
20260503010018 45 360 0.9 3.5 0.00 0.27 0.14 42 1014.1
20260503004516 46 360 0.0 4.3 0.00 0.27 0.14 41 1014.0
20260503003013 46 360 0.0 5.2 0.00 0.27 0.14 40 1013.7
20260503001513 46 360 0.0 1.7 0.00 0.27 0.14 38 1013.6
20260503000022 47 360 0.0 3.5 0.00 0.27 0.14 37 1013.5
20260502234511 47 360 0.0 2.6 0.00 0.27 0.14 36 1013.5
20260502233012 48 360 0.9 3.5 0.00 0.27 0.14 34 1013.6
20260502231511 48 360 0.9 4.3 0.00 0.27 0.14 34 1013.5
20260502230009 48 360 0.9 3.5 0.00 0.27 0.14 34 1013.3
20260502224508 49 360 0.9 7.0 0.00 0.27 0.14 33 1013.3
20260502223010 50 83 0.9 7.8 0.00 0.27 0.14 31 1013.2
20260502221507 50 13 0.9 5.2 0.00 0.27 0.14 32 1013.1
20260502220007 50 336 1.7 7.8 0.00 0.27 0.14 32 1013.1
20260502214506 51 239 0.9 4.3 0.00 0.27 0.14 30 1013.0
20260502213014 51 360 0.9 8.7 0.00 0.27 0.14 30 1012.9
20260502211505 51 360 0.9 4.3 0.00 0.27 0.14 31 1012.8
20260502210006 51 42 0.9 3.5 0.00 0.27 0.14 32 1012.8
20260502204503 51 360 1.7 4.3 0.00 0.27 0.14 31 1012.8
20260502203002 52 360 2.6 7.0 0.00 0.27 0.14 28 1012.7
20260502201501 54 277 1.7 7.8 0.00 0.27 0.14 27 1012.9
20260502200100 52 240 0.9 7.8 0.00 0.27 0.14 29 1012.9
20260502194601 53 226 2.6 7.8 0.00 0.27 0.14 28 1013.3
20260502193058 52 246 1.7 5.2 0.00 0.27 0.14 37 1013.6
20260502191601 52 26 1.7 5.2 0.00 0.27 0.14 28 1013.7
20260502190057 53 192 2.6 7.0 0.00 0.27 0.14 27 1013.8
20260502184602 54 290 3.5 10.4 0.00 0.27 0.14 31 1013.9
20260502183057 52 211 2.6 7.0 0.00 0.27 0.14 36 1014.0
20260502181608 51 277 0.9 8.7 0.00 0.27 0.14 33 1014.0
20260502163044 52 228 4.3 7.0 0.00 0.27 0.14 37 1014.2
20260502161542 50 247 2.6 7.8 0.00 0.27 0.14 34 1014.4
20260502151537 50 220 1.7 10.4 0.00 0.27 0.14 39 1014.5
20260502123005 42 360 0.9 7.8 0.00 0.27 0.14 53 1015.1
20260502121506 42 360 0.0 4.3 0.00 0.27 0.14 54 1014.9
20260502120106 41 360 0.0 2.6 0.00 0.27 0.14 54 1014.8
20260502114600 41 360 0.0 1.7 0.00 0.27 0.14 55 1014.8
20260502113101 41 360 0.0 3.5 0.00 0.27 0.14 56 1015.0
20260502111556 40 360 0.9 2.6 0.00 0.27 0.14 57 1015.0
20260502110058 40 360 0.0 2.6 0.00 0.27 0.14 58 1014.7
20260502104549 40 360 0.0 2.6 0.00 0.27 0.14 58 1014.7
20260502103047 40 360 0.0 0.9 0.00 0.27 0.14 58 1014.5
20260502101546 40 360 0.0 2.6 0.00 0.27 0.14 58 1014.5
20260502071518 43 360 0.0 3.5 0.04 0.26 0.13 62 1012.4
20260502070013 45 360 0.9 3.5 0.05 0.25 0.12 63 1012.7
20260502064528 45 360 0.0 0.0 0.03 0.23 0.10 62 1012.7
20260502063010 45 360 0.0 0.9 0.03 0.23 0.10 62 1012.7